Year,Month,Day,Hour,Minute,Value (Times are PST for temperature in C)
2015,07,04,00,00,19.20
2015,07,04,00,01,19.20
2015,07,04,00,02,19.20
2015,07,04,00,03,19.10
2015,07,04,00,04,19.10
2015,07,04,00,05,19.10
2015,07,04,00,06,19.10
2015,07,04,00,07,19.10
2015,07,04,00,08,19.10
2015,07,04,00,09,19.10
2015,07,04,00,10,19.10
2015,07,04,00,11,19.10
2015,07,04,00,12,19.10
2015,07,04,00,13,19.10
2015,07,04,00,14,19.10
2015,07,04,00,15,19.10
2015,07,04,00,16,19.10
2015,07,04,00,17,19.10
2015,07,04,00,18,19.10
2015,07,04,00,19,18.90
2015,07,04,00,20,18.90
2015,07,04,00,21,18.90
2015,07,04,00,22,18.90
2015,07,04,00,23,18.90
2015,07,04,00,24,18.90
2015,07,04,00,25,18.90
2015,07,04,00,26,18.90
2015,07,04,00,27,18.90
2015,07,04,00,28,18.90
2015,07,04,00,29,18.80
2015,07,04,00,30,18.80
2015,07,04,00,31,18.80
2015,07,04,00,32,18.80
2015,07,04,00,33,18.80
2015,07,04,00,34,18.80
2015,07,04,00,35,18.80
2015,07,04,00,36,18.80
2015,07,04,00,37,18.80
2015,07,04,00,38,18.80
2015,07,04,00,39,18.80
2015,07,04,00,40,18.80
2015,07,04,00,41,18.70
2015,07,04,00,42,18.70
2015,07,04,00,43,18.70
2015,07,04,00,44,18.70
2015,07,04,00,45,18.70
2015,07,04,00,46,18.60
2015,07,04,00,47,18.60
2015,07,04,00,48,18.60
2015,07,04,00,49,18.60
2015,07,04,00,50,18.60
2015,07,04,00,51,18.60
2015,07,04,00,52,18.60
2015,07,04,00,53,18.60
2015,07,04,00,54,18.50
2015,07,04,00,55,18.50
2015,07,04,00,56,18.50
2015,07,04,00,57,18.50
2015,07,04,00,58,18.50
2015,07,04,00,59,18.50
2015,07,04,01,00,18.50
2015,07,04,01,01,18.50
2015,07,04,01,02,18.50
2015,07,04,01,03,18.50
2015,07,04,01,04,18.50
2015,07,04,01,05,18.50
2015,07,04,01,06,18.50
2015,07,04,01,07,18.50
2015,07,04,01,08,18.40
2015,07,04,01,09,18.40
2015,07,04,01,10,18.40
2015,07,04,01,11,18.40
2015,07,04,01,12,18.40
2015,07,04,01,13,18.40
2015,07,04,01,14,18.30
2015,07,04,01,15,18.30
2015,07,04,01,16,18.30
2015,07,04,01,17,18.30
2015,07,04,01,18,18.30
2015,07,04,01,19,18.30
2015,07,04,01,20,18.30
2015,07,04,01,21,18.30
2015,07,04,01,22,18.30
2015,07,04,01,23,18.30
2015,07,04,01,24,18.30
2015,07,04,01,25,18.30
2015,07,04,01,26,18.30
2015,07,04,01,27,18.20
2015,07,04,01,28,18.20
2015,07,04,01,29,18.20
2015,07,04,01,30,18.20
2015,07,04,01,31,18.20
2015,07,04,01,32,18.20
2015,07,04,01,33,18.20
2015,07,04,01,34,18.20
2015,07,04,01,35,18.20
2015,07,04,01,36,18.20
2015,07,04,01,37,18.20
2015,07,04,01,38,18.20
2015,07,04,01,39,18.20
2015,07,04,01,40,18.20
2015,07,04,01,41,18.20
2015,07,04,01,42,18.20
2015,07,04,01,43,18.20
2015,07,04,01,44,18.20
2015,07,04,01,45,18.20
2015,07,04,01,46,18.20
2015,07,04,01,47,18.10
2015,07,04,01,48,18.10
2015,07,04,01,49,18.10
2015,07,04,01,50,18.10
2015,07,04,01,51,18.10
2015,07,04,01,52,18.10
2015,07,04,01,53,18.10
2015,07,04,01,54,18.10
2015,07,04,01,55,18.10
2015,07,04,01,56,18.10
2015,07,04,01,57,18.10
2015,07,04,01,58,18.10
2015,07,04,01,59,18.10
2015,07,04,02,00,18.10
2015,07,04,02,01,18.10
2015,07,04,02,02,18.10
2015,07,04,02,03,18.10
2015,07,04,02,04,18.10
2015,07,04,02,05,18.10
2015,07,04,02,06,18.10
2015,07,04,02,07,18.00
2015,07,04,02,08,18.00
2015,07,04,02,09,17.90
2015,07,04,02,10,17.90
2015,07,04,02,11,17.90
2015,07,04,02,12,17.90
2015,07,04,02,13,17.90
2015,07,04,02,14,17.90
2015,07,04,02,15,17.90
2015,07,04,02,16,17.90
2015,07,04,02,17,17.80
2015,07,04,02,18,17.80
2015,07,04,02,19,17.80
2015,07,04,02,20,17.80
2015,07,04,02,21,17.70
2015,07,04,02,22,17.70
2015,07,04,02,23,17.70
2015,07,04,02,24,17.70
2015,07,04,02,25,17.70
2015,07,04,02,26,17.70
2015,07,04,02,27,17.70
2015,07,04,02,28,17.60
2015,07,04,02,29,17.60
2015,07,04,02,30,17.60
2015,07,04,02,31,17.60
2015,07,04,02,32,17.60
2015,07,04,02,33,17.60
2015,07,04,02,34,17.60
2015,07,04,02,35,17.60
2015,07,04,02,36,17.60
2015,07,04,02,37,17.60
2015,07,04,02,38,17.50
2015,07,04,02,39,17.50
2015,07,04,02,40,17.50
2015,07,04,02,41,17.50
2015,07,04,02,42,17.40
2015,07,04,02,43,17.40
2015,07,04,02,44,17.40
2015,07,04,02,45,17.40
2015,07,04,02,46,17.40
2015,07,04,02,47,17.40
2015,07,04,02,48,17.30
2015,07,04,02,49,17.30
2015,07,04,02,50,17.30
2015,07,04,02,51,17.30
2015,07,04,02,52,17.30
2015,07,04,02,53,17.20
2015,07,04,02,54,17.20
2015,07,04,02,55,17.20
2015,07,04,02,56,17.10
2015,07,04,02,57,17.10
2015,07,04,02,58,17.10
2015,07,04,02,59,17.10
2015,07,04,03,00,17.10
2015,07,04,03,01,17.00
2015,07,04,03,02,17.00
2015,07,04,03,03,17.00
2015,07,04,03,04,17.00
2015,07,04,03,05,16.90
2015,07,04,03,06,16.90
2015,07,04,03,07,16.90
2015,07,04,03,08,16.80
2015,07,04,03,09,16.80
2015,07,04,03,10,16.80
2015,07,04,03,11,16.70
2015,07,04,03,12,16.70
2015,07,04,03,13,16.70
2015,07,04,03,14,16.70
2015,07,04,03,15,16.70
2015,07,04,03,16,16.60
2015,07,04,03,17,16.60
2015,07,04,03,18,16.60
2015,07,04,03,19,16.60
2015,07,04,03,20,16.60
2015,07,04,03,21,16.60
2015,07,04,03,22,16.50
2015,07,04,03,23,16.40
2015,07,04,03,24,16.40
2015,07,04,03,25,16.40
2015,07,04,03,26,16.40
2015,07,04,03,27,16.40
2015,07,04,03,28,16.40
2015,07,04,03,29,16.40
2015,07,04,03,30,16.40
2015,07,04,03,31,16.40
2015,07,04,03,32,16.30
2015,07,04,03,33,16.30
2015,07,04,03,34,16.30
2015,07,04,03,35,16.30
2015,07,04,03,36,16.30
2015,07,04,03,37,16.20
2015,07,04,03,38,16.20
2015,07,04,03,39,16.20
2015,07,04,03,40,16.20
2015,07,04,03,41,16.20
2015,07,04,03,42,16.20
2015,07,04,03,43,16.20
2015,07,04,03,44,16.20
2015,07,04,03,45,16.20
2015,07,04,03,46,16.20
2015,07,04,03,47,16.20
2015,07,04,03,48,16.10
2015,07,04,03,49,16.10
2015,07,04,03,50,16.10
2015,07,04,03,51,16.10
2015,07,04,03,52,16.10
2015,07,04,03,53,16.10
2015,07,04,03,54,16.10
2015,07,04,03,55,16.10
2015,07,04,03,56,16.10
2015,07,04,03,57,16.10
2015,07,04,03,58,16.10
2015,07,04,03,59,16.10
2015,07,04,04,00,16.10
2015,07,04,04,01,16.10
2015,07,04,04,02,16.20
2015,07,04,04,03,16.20
2015,07,04,04,04,16.20
2015,07,04,04,05,16.20
2015,07,04,04,06,16.20
2015,07,04,04,07,16.10
2015,07,04,04,08,16.10
2015,07,04,04,09,16.10
2015,07,04,04,10,16.10
2015,07,04,04,11,16.10
2015,07,04,04,12,16.10
2015,07,04,04,13,16.10
2015,07,04,04,14,16.10
2015,07,04,04,15,16.10
2015,07,04,04,16,16.10
2015,07,04,04,17,16.10
2015,07,04,04,18,16.10
2015,07,04,04,19,16.10
2015,07,04,04,20,16.10
2015,07,04,04,21,16.10
2015,07,04,04,22,16.10
2015,07,04,04,23,16.10
2015,07,04,04,24,16.10
2015,07,04,04,25,16.10
2015,07,04,04,26,16.10
2015,07,04,04,27,16.10
2015,07,04,04,28,16.00
2015,07,04,04,29,15.90
2015,07,04,04,30,15.90
2015,07,04,04,31,15.90
2015,07,04,04,32,15.90
2015,07,04,04,33,15.90
2015,07,04,04,34,15.80
2015,07,04,04,35,15.80
2015,07,04,04,36,15.80
2015,07,04,04,37,15.80
2015,07,04,04,38,15.80
2015,07,04,04,39,15.80
2015,07,04,04,40,15.80
2015,07,04,04,41,15.80
2015,07,04,04,42,15.80
2015,07,04,04,43,15.80
2015,07,04,04,44,15.80
2015,07,04,04,45,15.80
2015,07,04,04,46,15.80
2015,07,04,04,47,15.80
2015,07,04,04,48,15.80
2015,07,04,04,49,15.80
2015,07,04,04,50,15.80
2015,07,04,04,51,15.80
2015,07,04,04,52,15.80
2015,07,04,04,53,15.80
2015,07,04,04,54,15.80
2015,07,04,04,55,15.80
2015,07,04,04,56,15.80
2015,07,04,04,57,15.80
2015,07,04,04,58,15.80
2015,07,04,04,59,15.80
2015,07,04,05,00,15.80
2015,07,04,05,01,15.70
2015,07,04,05,02,15.70
2015,07,04,05,03,15.70
2015,07,04,05,04,15.70
2015,07,04,05,05,15.70
2015,07,04,05,06,15.70
2015,07,04,05,07,15.70
2015,07,04,05,08,15.70
2015,07,04,05,09,15.70
2015,07,04,05,10,15.70
2015,07,04,05,11,15.70
2015,07,04,05,12,15.70
2015,07,04,05,13,15.70
2015,07,04,05,14,15.70
2015,07,04,05,15,15.60
2015,07,04,05,16,15.60
2015,07,04,05,17,15.60
2015,07,04,05,18,15.60
2015,07,04,05,19,15.50
2015,07,04,05,20,15.50
2015,07,04,05,21,15.50
2015,07,04,05,22,15.50
2015,07,04,05,23,15.50
2015,07,04,05,24,15.50
2015,07,04,05,25,15.50
2015,07,04,05,26,15.50
2015,07,04,05,27,15.40
2015,07,04,05,28,15.40
2015,07,04,05,29,15.40
2015,07,04,05,30,15.40
2015,07,04,05,31,15.40
2015,07,04,05,32,15.40
2015,07,04,05,33,15.40
2015,07,04,05,34,15.40
2015,07,04,05,35,15.40
2015,07,04,05,36,15.40
2015,07,04,05,37,15.40
2015,07,04,05,38,15.40
2015,07,04,05,39,15.30
2015,07,04,05,40,15.30
2015,07,04,05,41,15.30
2015,07,04,05,42,15.30
2015,07,04,05,43,15.30
2015,07,04,05,44,15.30
2015,07,04,05,45,15.20
2015,07,04,05,46,15.20
2015,07,04,05,47,15.20
2015,07,04,05,48,15.20
2015,07,04,05,49,15.10
2015,07,04,05,50,15.10
2015,07,04,05,51,15.10
2015,07,04,05,52,15.10
2015,07,04,05,53,15.10
2015,07,04,05,54,15.10
2015,07,04,05,55,15.00
2015,07,04,05,56,15.00
2015,07,04,05,57,15.00
2015,07,04,05,58,15.00
2015,07,04,05,59,15.00
2015,07,04,06,00,15.00
2015,07,04,06,01,15.00
2015,07,04,06,02,15.00
2015,07,04,06,03,15.00
2015,07,04,06,04,15.00
2015,07,04,06,05,15.00
2015,07,04,06,06,15.00
2015,07,04,06,07,15.00
2015,07,04,06,08,14.90
2015,07,04,06,09,14.90
2015,07,04,06,10,14.90
2015,07,04,06,11,14.90
2015,07,04,06,12,14.90
2015,07,04,06,13,14.90
2015,07,04,06,14,14.90
2015,07,04,06,15,14.90
2015,07,04,06,16,14.90
2015,07,04,06,17,14.90
2015,07,04,06,18,14.90
2015,07,04,06,19,14.90
2015,07,04,06,20,15.00
2015,07,04,06,21,15.00
2015,07,04,06,22,15.00
2015,07,04,06,23,15.00
2015,07,04,06,24,15.00
2015,07,04,06,25,15.00
2015,07,04,06,26,15.00
2015,07,04,06,27,15.00
2015,07,04,06,28,15.00
2015,07,04,06,29,15.00
2015,07,04,06,30,15.10
2015,07,04,06,31,15.10
2015,07,04,06,32,15.10
2015,07,04,06,33,15.10
2015,07,04,06,34,15.10
2015,07,04,06,35,15.10
2015,07,04,06,36,15.10
2015,07,04,06,37,15.10
2015,07,04,06,38,15.20
2015,07,04,06,39,15.20
2015,07,04,06,40,15.20
2015,07,04,06,41,15.20
2015,07,04,06,42,15.20
2015,07,04,06,43,15.30
2015,07,04,06,44,15.30
2015,07,04,06,45,15.30
2015,07,04,06,46,15.30
2015,07,04,06,47,15.30
2015,07,04,06,48,15.30
2015,07,04,06,49,15.30
2015,07,04,06,50,15.30
2015,07,04,06,51,15.30
2015,07,04,06,52,15.30
2015,07,04,06,53,15.30
2015,07,04,06,54,15.30
2015,07,04,06,55,15.40
2015,07,04,06,56,15.40
2015,07,04,06,57,15.40
2015,07,04,06,58,15.40
2015,07,04,06,59,15.50
2015,07,04,07,00,15.50
2015,07,04,07,01,15.50
2015,07,04,07,02,15.50
2015,07,04,07,03,15.50
2015,07,04,07,04,15.60
2015,07,04,07,05,15.60
2015,07,04,07,06,15.60
2015,07,04,07,07,15.60
2015,07,04,07,08,15.60
2015,07,04,07,09,15.60
2015,07,04,07,10,15.60
2015,07,04,07,11,15.70
2015,07,04,07,12,15.70
2015,07,04,07,13,15.70
2015,07,04,07,14,15.80
2015,07,04,07,15,15.80
2015,07,04,07,16,15.80
2015,07,04,07,17,15.80
2015,07,04,07,18,15.80
2015,07,04,07,19,15.80
2015,07,04,07,20,15.90
2015,07,04,07,21,15.90
2015,07,04,07,22,16.00
2015,07,04,07,23,16.10
2015,07,04,07,24,16.10
2015,07,04,07,25,16.10
2015,07,04,07,26,16.10
2015,07,04,07,27,16.20
2015,07,04,07,28,16.20
2015,07,04,07,29,16.20
2015,07,04,07,30,16.30
2015,07,04,07,31,16.40
2015,07,04,07,32,16.40
2015,07,04,07,33,16.50
2015,07,04,07,34,16.60
2015,07,04,07,35,16.60
2015,07,04,07,36,16.70
2015,07,04,07,37,16.70
2015,07,04,07,38,16.80
2015,07,04,07,39,16.90
2015,07,04,07,40,17.00
2015,07,04,07,41,17.00
2015,07,04,07,42,17.10
2015,07,04,07,43,17.20
2015,07,04,07,44,17.30
2015,07,04,07,45,17.30
2015,07,04,07,46,17.40
2015,07,04,07,47,17.50
2015,07,04,07,48,17.50
2015,07,04,07,49,17.60
2015,07,04,07,50,17.70
2015,07,04,07,51,17.70
2015,07,04,07,52,17.80
2015,07,04,07,53,17.80
2015,07,04,07,54,17.90
2015,07,04,07,55,17.90
2015,07,04,07,56,17.90
2015,07,04,07,57,18.00
2015,07,04,07,58,18.10
2015,07,04,07,59,18.20
2015,07,04,08,00,18.20
2015,07,04,08,01,18.20
2015,07,04,08,02,18.30
2015,07,04,08,03,18.30
2015,07,04,08,04,18.40
2015,07,04,08,05,18.50
2015,07,04,08,06,18.60
2015,07,04,08,07,18.60
2015,07,04,08,08,18.70
2015,07,04,08,09,18.80
2015,07,04,08,10,18.90
2015,07,04,08,11,18.90
2015,07,04,08,12,19.00
2015,07,04,08,13,19.10
2015,07,04,08,14,19.10
2015,07,04,08,15,19.10
2015,07,04,08,16,19.20
2015,07,04,08,17,19.20
2015,07,04,08,18,19.30
2015,07,04,08,19,19.40
2015,07,04,08,20,19.40
2015,07,04,08,21,19.50
2015,07,04,08,22,19.50
2015,07,04,08,23,19.60
2015,07,04,08,24,19.70
2015,07,04,08,25,19.70
2015,07,04,08,26,19.80
2015,07,04,08,27,19.90
2015,07,04,08,28,19.90
2015,07,04,08,29,20.00
2015,07,04,08,30,20.10
2015,07,04,08,31,20.10
2015,07,04,08,32,20.20
2015,07,04,08,33,20.20
2015,07,04,08,34,20.20
2015,07,04,08,35,20.20
2015,07,04,08,36,20.30
2015,07,04,08,37,20.30
2015,07,04,08,38,20.40
2015,07,04,08,39,20.40
2015,07,04,08,40,20.50
2015,07,04,08,41,20.50
2015,07,04,08,42,20.60
2015,07,04,08,43,20.60
2015,07,04,08,44,20.70
2015,07,04,08,45,20.80
2015,07,04,08,46,20.80
2015,07,04,08,47,20.80
2015,07,04,08,48,20.90
2015,07,04,08,49,20.90
2015,07,04,08,50,21.00
2015,07,04,08,51,21.00
2015,07,04,08,52,21.10
2015,07,04,08,53,21.10
2015,07,04,08,54,21.10
2015,07,04,08,55,21.20
2015,07,04,08,56,21.20
2015,07,04,08,57,21.30
2015,07,04,08,58,21.30
2015,07,04,08,59,21.30
2015,07,04,09,00,21.30
2015,07,04,09,01,21.30
2015,07,04,09,02,21.40
2015,07,04,09,03,21.40
2015,07,04,09,04,21.40
2015,07,04,09,05,21.50
2015,07,04,09,06,21.60
2015,07,04,09,07,21.60
2015,07,04,09,08,21.60
2015,07,04,09,09,21.60
2015,07,04,09,10,21.60
2015,07,04,09,11,21.60
2015,07,04,09,12,21.60
2015,07,04,09,13,21.70
2015,07,04,09,14,21.70
2015,07,04,09,15,21.70
2015,07,04,09,16,21.70
2015,07,04,09,17,21.70
2015,07,04,09,18,21.70
2015,07,04,09,19,21.80
2015,07,04,09,20,21.80
2015,07,04,09,21,21.80
2015,07,04,09,22,21.80
2015,07,04,09,23,21.90
2015,07,04,09,24,21.90
2015,07,04,09,25,21.90
2015,07,04,09,26,21.90
2015,07,04,09,27,21.90
2015,07,04,09,28,21.90
2015,07,04,09,29,21.90
2015,07,04,09,30,21.90
2015,07,04,09,31,21.90
2015,07,04,09,32,22.00
2015,07,04,09,33,22.00
2015,07,04,09,34,22.00
2015,07,04,09,35,22.00
2015,07,04,09,36,22.00
2015,07,04,09,37,22.00
2015,07,04,09,38,22.10
2015,07,04,09,39,22.10
2015,07,04,09,40,22.10
2015,07,04,09,41,22.20
2015,07,04,09,42,22.20
2015,07,04,09,43,22.20
2015,07,04,09,44,22.20
2015,07,04,09,45,22.20
2015,07,04,09,46,22.30
2015,07,04,09,47,22.30
2015,07,04,09,48,22.30
2015,07,04,09,49,22.30
2015,07,04,09,50,22.40
2015,07,04,09,51,22.40
2015,07,04,09,52,22.40
2015,07,04,09,53,22.40
2015,07,04,09,54,22.50
2015,07,04,09,55,22.50
2015,07,04,09,56,22.60
2015,07,04,09,57,22.60
2015,07,04,09,58,22.60
2015,07,04,09,59,22.60
2015,07,04,10,00,22.70
2015,07,04,10,01,22.70
2015,07,04,10,02,22.70
2015,07,04,10,03,22.80
2015,07,04,10,04,22.80
2015,07,04,10,05,22.80
2015,07,04,10,06,22.90
2015,07,04,10,07,22.90
2015,07,04,10,08,22.90
2015,07,04,10,09,22.90
2015,07,04,10,10,22.90
2015,07,04,10,11,22.90
2015,07,04,10,12,23.10
2015,07,04,10,13,23.10
2015,07,04,10,14,23.10
2015,07,04,10,15,23.20
2015,07,04,10,16,23.20
2015,07,04,10,17,23.20
2015,07,04,10,18,23.20
2015,07,04,10,19,23.20
2015,07,04,10,20,23.30
2015,07,04,10,21,23.30
2015,07,04,10,22,23.30
2015,07,04,10,23,23.30
2015,07,04,10,24,23.30
2015,07,04,10,25,23.30
2015,07,04,10,26,23.20
2015,07,04,10,27,23.20
2015,07,04,10,28,23.20
2015,07,04,10,29,23.20
2015,07,04,10,30,23.20
2015,07,04,10,31,23.20
2015,07,04,10,32,23.20
2015,07,04,10,33,23.20
2015,07,04,10,34,23.20
2015,07,04,10,35,23.20
2015,07,04,10,36,23.20
2015,07,04,10,37,23.20
2015,07,04,10,38,23.20
2015,07,04,10,39,23.30
2015,07,04,10,40,23.30
2015,07,04,10,41,23.30
2015,07,04,10,42,23.30
2015,07,04,10,43,23.30
2015,07,04,10,44,23.30
2015,07,04,10,45,23.30
2015,07,04,10,46,23.30
2015,07,04,10,47,23.30
2015,07,04,10,48,23.30
2015,07,04,10,49,23.40
2015,07,04,10,50,23.40
2015,07,04,10,51,23.40
2015,07,04,10,52,23.40
2015,07,04,10,53,23.40
2015,07,04,10,54,23.40
2015,07,04,10,55,23.40
2015,07,04,10,56,23.50
2015,07,04,10,57,23.60
2015,07,04,10,58,23.60
2015,07,04,10,59,23.60
2015,07,04,11,00,23.60
2015,07,04,11,01,23.60
2015,07,04,11,02,23.60
2015,07,04,11,03,23.70
2015,07,04,11,04,23.70
2015,07,04,11,05,23.60
2015,07,04,11,06,23.60
2015,07,04,11,07,23.60
2015,07,04,11,08,23.60
2015,07,04,11,09,23.60
2015,07,04,11,10,23.60
2015,07,04,11,11,23.60
2015,07,04,11,12,23.60
2015,07,04,11,13,23.60
2015,07,04,11,14,23.60
2015,07,04,11,15,23.60
2015,07,04,11,16,23.60
2015,07,04,11,17,23.60
2015,07,04,11,18,23.60
2015,07,04,11,19,23.60
2015,07,04,11,20,23.70
2015,07,04,11,21,23.70
2015,07,04,11,22,23.70
2015,07,04,11,23,23.70
2015,07,04,11,24,23.70
2015,07,04,11,25,23.70
2015,07,04,11,26,23.70
2015,07,04,11,27,23.70
2015,07,04,11,28,23.70
2015,07,04,11,29,23.70
2015,07,04,11,30,23.70
2015,07,04,11,31,23.70
2015,07,04,11,32,23.70
2015,07,04,11,33,23.70
2015,07,04,11,34,23.70
2015,07,04,11,35,23.70
2015,07,04,11,36,23.70
2015,07,04,11,37,23.70
2015,07,04,11,38,23.70
2015,07,04,11,39,23.70
2015,07,04,11,40,23.70
2015,07,04,11,41,23.70
2015,07,04,11,42,23.70
2015,07,04,11,43,23.70
2015,07,04,11,44,23.70
2015,07,04,11,45,23.70
2015,07,04,11,46,23.70
2015,07,04,11,47,23.70
2015,07,04,11,48,23.70
2015,07,04,11,49,23.70
2015,07,04,11,50,23.80
2015,07,04,11,51,23.80
2015,07,04,11,52,23.80
2015,07,04,11,53,23.90
2015,07,04,11,54,23.90
2015,07,04,11,55,23.90
2015,07,04,11,56,24.00
2015,07,04,11,57,24.10
2015,07,04,11,58,24.10
2015,07,04,11,59,24.10
2015,07,04,12,00,24.10
2015,07,04,12,01,24.10
2015,07,04,12,02,24.10
2015,07,04,12,03,24.20
2015,07,04,12,04,24.30
2015,07,04,12,05,24.30
2015,07,04,12,06,24.40
2015,07,04,12,07,24.40
2015,07,04,12,08,24.40
2015,07,04,12,09,24.50
2015,07,04,12,10,24.50
2015,07,04,12,11,24.50
2015,07,04,12,12,24.50
2015,07,04,12,13,24.50
2015,07,04,12,14,24.60
2015,07,04,12,15,24.60
2015,07,04,12,16,24.60
2015,07,04,12,17,24.60
2015,07,04,12,18,24.70
2015,07,04,12,19,24.70
2015,07,04,12,20,24.80
2015,07,04,12,21,24.80
2015,07,04,12,22,24.80
2015,07,04,12,23,24.90
2015,07,04,12,24,24.90
2015,07,04,12,25,24.90
2015,07,04,12,26,25.00
2015,07,04,12,27,25.00
2015,07,04,12,28,25.00
2015,07,04,12,29,25.00
2015,07,04,12,30,25.10
2015,07,04,12,31,25.10
2015,07,04,12,32,25.10
2015,07,04,12,33,25.20
2015,07,04,12,34,25.20
2015,07,04,12,35,25.20
2015,07,04,12,36,25.30
2015,07,04,12,37,25.30
2015,07,04,12,38,25.40
2015,07,04,12,39,25.40
2015,07,04,12,40,25.40
2015,07,04,12,41,25.50
2015,07,04,12,42,25.60
2015,07,04,12,43,25.70
2015,07,04,12,44,25.70
2015,07,04,12,45,25.80
2015,07,04,12,46,25.90
2015,07,04,12,47,25.90
2015,07,04,12,48,25.90
2015,07,04,12,49,25.90
2015,07,04,12,50,25.90
2015,07,04,12,51,25.90
2015,07,04,12,52,25.90
2015,07,04,12,53,25.90
2015,07,04,12,54,25.90
2015,07,04,12,55,25.90
2015,07,04,12,56,26.00
2015,07,04,12,57,26.00
2015,07,04,12,58,26.00
2015,07,04,12,59,26.00
2015,07,04,13,00,26.00
2015,07,04,13,01,26.00
2015,07,04,13,02,26.00
2015,07,04,13,03,26.00
2015,07,04,13,04,26.10
2015,07,04,13,05,26.10
2015,07,04,13,06,26.20
2015,07,04,13,07,26.30
2015,07,04,13,08,26.40
2015,07,04,13,09,26.50
2015,07,04,13,10,26.60
2015,07,04,13,11,26.70
2015,07,04,13,12,26.80
2015,07,04,13,13,26.90
2015,07,04,13,14,27.00
2015,07,04,13,15,27.10
2015,07,04,13,16,27.20
2015,07,04,13,17,27.30
2015,07,04,13,18,27.30
2015,07,04,13,19,27.40
2015,07,04,13,20,27.40
2015,07,04,13,21,27.50
2015,07,04,13,22,27.60
2015,07,04,13,23,27.60
2015,07,04,13,24,27.60
2015,07,04,13,25,27.70
2015,07,04,13,26,27.80
2015,07,04,13,27,27.90
2015,07,04,13,28,28.00
2015,07,04,13,29,28.10
2015,07,04,13,30,28.20
2015,07,04,13,31,28.30
2015,07,04,13,32,28.50
2015,07,04,13,33,28.60
2015,07,04,13,34,28.60
2015,07,04,13,35,28.70
2015,07,04,13,36,28.80
2015,07,04,13,37,28.80
2015,07,04,13,38,28.90
2015,07,04,13,39,28.90
2015,07,04,13,40,28.90
2015,07,04,13,41,28.90
2015,07,04,13,42,28.90
2015,07,04,13,43,28.90
2015,07,04,13,44,28.90
2015,07,04,13,45,28.90
2015,07,04,13,46,28.90
2015,07,04,13,47,28.90
2015,07,04,13,48,28.90
2015,07,04,13,49,29.00
2015,07,04,13,50,29.10
2015,07,04,13,51,29.30
2015,07,04,13,52,29.30
2015,07,04,13,53,29.40
2015,07,04,13,54,29.50
2015,07,04,13,55,29.50
2015,07,04,13,56,29.50
2015,07,04,13,57,29.60
2015,07,04,13,58,29.60
2015,07,04,13,59,29.70
2015,07,04,14,00,29.80
2015,07,04,14,01,29.90
2015,07,04,14,02,29.90
2015,07,04,14,03,30.10
2015,07,04,14,04,30.10
2015,07,04,14,05,30.20
2015,07,04,14,06,30.30
2015,07,04,14,07,30.30
2015,07,04,14,08,30.40
2015,07,04,14,09,30.40
2015,07,04,14,10,30.60
2015,07,04,14,11,30.60
2015,07,04,14,12,30.60
2015,07,04,14,13,30.70
2015,07,04,14,14,30.70
2015,07,04,14,15,30.70
2015,07,04,14,16,30.80
2015,07,04,14,17,30.80
2015,07,04,14,18,30.80
2015,07,04,14,19,30.70
2015,07,04,14,20,30.70
2015,07,04,14,21,30.60
2015,07,04,14,22,30.50
2015,07,04,14,23,30.40
2015,07,04,14,24,30.30
2015,07,04,14,25,30.30
2015,07,04,14,26,30.20
2015,07,04,14,27,30.20
2015,07,04,14,28,30.10
2015,07,04,14,29,30.00
2015,07,04,14,30,29.80
2015,07,04,14,31,29.70
2015,07,04,14,32,29.60
2015,07,04,14,33,29.50
2015,07,04,14,34,29.50
2015,07,04,14,35,29.50
2015,07,04,14,36,29.40
2015,07,04,14,37,29.40
2015,07,04,14,38,29.30
2015,07,04,14,39,29.30
2015,07,04,14,40,29.30
2015,07,04,14,41,29.40
2015,07,04,14,42,29.40
2015,07,04,14,43,29.40
2015,07,04,14,44,29.40
2015,07,04,14,45,29.40
2015,07,04,14,46,29.40
2015,07,04,14,47,29.40
2015,07,04,14,48,29.40
2015,07,04,14,49,29.40
2015,07,04,14,50,29.50
2015,07,04,14,51,29.50
2015,07,04,14,52,29.60
2015,07,04,14,53,29.60
2015,07,04,14,54,29.60
2015,07,04,14,55,29.70
2015,07,04,14,56,29.70
2015,07,04,14,57,29.80
2015,07,04,14,58,29.90
2015,07,04,14,59,30.00
2015,07,04,15,00,30.10
2015,07,04,15,01,30.20
2015,07,04,15,02,30.20
2015,07,04,15,03,30.30
2015,07,04,15,04,30.30
2015,07,04,15,05,30.40
2015,07,04,15,06,30.40
2015,07,04,15,07,30.60
2015,07,04,15,08,30.60
2015,07,04,15,09,30.60
2015,07,04,15,10,30.60
2015,07,04,15,11,30.60
2015,07,04,15,12,30.40
2015,07,04,15,13,30.40
2015,07,04,15,14,30.40
2015,07,04,15,15,30.30
2015,07,04,15,16,30.30
2015,07,04,15,17,30.20
2015,07,04,15,18,30.20
2015,07,04,15,19,30.10
2015,07,04,15,20,30.10
2015,07,04,15,21,30.00
2015,07,04,15,22,29.90
2015,07,04,15,23,29.80
2015,07,04,15,24,29.80
2015,07,04,15,25,29.70
2015,07,04,15,26,29.60
2015,07,04,15,27,29.60
2015,07,04,15,28,29.50
2015,07,04,15,29,29.50
2015,07,04,15,30,29.40
2015,07,04,15,31,29.30
2015,07,04,15,32,29.30
2015,07,04,15,33,29.30
2015,07,04,15,34,29.30
2015,07,04,15,35,29.30
2015,07,04,15,36,29.20
2015,07,04,15,37,29.20
2015,07,04,15,38,29.20
2015,07,04,15,39,29.20
2015,07,04,15,40,29.20
2015,07,04,15,41,29.20
2015,07,04,15,42,29.30
2015,07,04,15,43,29.30
2015,07,04,15,44,29.30
2015,07,04,15,45,29.30
2015,07,04,15,46,29.30
2015,07,04,15,47,29.30
2015,07,04,15,48,29.30
2015,07,04,15,49,29.30
2015,07,04,15,50,29.20
2015,07,04,15,51,29.20
2015,07,04,15,52,29.10
2015,07,04,15,53,28.90
2015,07,04,15,54,28.90
2015,07,04,15,55,28.90
2015,07,04,15,56,28.80
2015,07,04,15,57,28.80
2015,07,04,15,58,28.70
2015,07,04,15,59,28.60
2015,07,04,16,00,28.60
2015,07,04,16,01,28.40
2015,07,04,16,02,28.40
2015,07,04,16,03,28.40
2015,07,04,16,04,28.40
2015,07,04,16,05,28.30
2015,07,04,16,06,28.30
2015,07,04,16,07,28.20
2015,07,04,16,08,28.10
2015,07,04,16,09,28.00
2015,07,04,16,10,27.90
2015,07,04,16,11,27.80
2015,07,04,16,12,27.80
2015,07,04,16,13,27.70
2015,07,04,16,14,27.60
2015,07,04,16,15,27.50
2015,07,04,16,16,27.40
2015,07,04,16,17,27.40
2015,07,04,16,18,27.30
2015,07,04,16,19,27.30
2015,07,04,16,20,27.30
2015,07,04,16,21,27.30
2015,07,04,16,22,27.30
2015,07,04,16,23,27.30
2015,07,04,16,24,27.30
2015,07,04,16,25,27.30
2015,07,04,16,26,27.30
2015,07,04,16,27,27.30
2015,07,04,16,28,27.30
2015,07,04,16,29,27.30
2015,07,04,16,30,27.30
2015,07,04,16,31,27.30
2015,07,04,16,32,27.20
2015,07,04,16,33,27.20
2015,07,04,16,34,27.20
2015,07,04,16,35,27.20
2015,07,04,16,36,27.20
2015,07,04,16,37,27.20
2015,07,04,16,38,27.20
2015,07,04,16,39,27.20
2015,07,04,16,40,27.20
2015,07,04,16,41,27.20
2015,07,04,16,42,27.20
2015,07,04,16,43,27.10
2015,07,04,16,44,27.10
2015,07,04,16,45,27.10
2015,07,04,16,46,27.10
2015,07,04,16,47,27.10
2015,07,04,16,48,27.10
2015,07,04,16,49,27.10
2015,07,04,16,50,27.10
2015,07,04,16,51,27.10
2015,07,04,16,52,27.10
2015,07,04,16,53,27.10
2015,07,04,16,54,27.10
2015,07,04,16,55,27.10
2015,07,04,16,56,27.10
2015,07,04,16,57,27.10
2015,07,04,16,58,27.10
2015,07,04,16,59,27.10
2015,07,04,17,00,27.10
2015,07,04,17,01,27.10
2015,07,04,17,02,27.10
2015,07,04,17,03,27.10
2015,07,04,17,04,27.10
2015,07,04,17,05,27.10
2015,07,04,17,06,27.10
2015,07,04,17,07,27.10
2015,07,04,17,08,27.10
2015,07,04,17,09,27.10
2015,07,04,17,10,27.10
2015,07,04,17,11,27.10
2015,07,04,17,12,27.10
2015,07,04,17,13,27.00
2015,07,04,17,14,26.90
2015,07,04,17,15,26.90
2015,07,04,17,16,26.90
2015,07,04,17,17,26.90
2015,07,04,17,18,26.90
2015,07,04,17,19,26.90